Location: *
(44.1392°N, 4.8079°E)
Time: 22:16:59
(UTC+00:00)

Cosmos 2369 Rocket - Pass Details

Date: 21 June 2021
Orbit: 828 x 854 km, 71.0° (Epoch: 02 August)

Event Time Altitude Azimuth Distance (km) Brightness Sun altitude
Rises 01:57:50 0° 316° (NW) 3,430 5.5 -15.7°
Reaches altitude 10° 02:01:44 10° 290° (WNW) 2,486 4.5 -15.3°
Maximum altitude 02:04:10 13° 264° (W) 2,275 4.1 -15.1°
Enters shadow 02:04:55 13° 256° (WSW) 2,293 4.0 -15.0°
